Latitude,Longitude,Height (m),Date (UTC),U_velocity (m/s),V_velocity (m/s),Wind_Speed (m/s),Wind_Dir (degrees)
39.29472351074219,-73.471435546875,160,2022-01-01 00:00:00,2.0737822,5.4021015,5.7864733,201.001
39.29472351074219,-73.471435546875,160,2022-01-01 01:00:00,3.3559895,4.545791,5.650388,216.43707
39.29472351074219,-73.471435546875,160,2022-01-01 02:00:00,5.0576515,3.114117,5.9394917,238.3784
39.29472351074219,-73.471435546875,160,2022-01-01 03:00:00,3.3198445,3.8703861,5.0991426,220.62152
39.29472351074219,-73.471435546875,160,2022-01-01 04:00:00,4.0187874,7.123716,8.179118,209.42915
39.29472351074219,-73.471435546875,160,2022-01-01 05:00:00,3.879442,9.106502,9.898406,203.07439
39.29472351074219,-73.471435546875,160,2022-01-01 06:00:00,4.1555676,10.041325,10.867242,202.48206
39.29472351074219,-73.471435546875,160,2022-01-01 07:00:00,3.4853034,11.6530695,12.163115,196.65134
39.29472351074219,-73.471435546875,160,2022-01-01 08:00:00,2.5387185,12.8299265,13.078689,191.1928
39.29472351074219,-73.471435546875,160,2022-01-01 09:00:00,1.1957355,13.985807,14.03683,184.88669
39.29472351074219,-73.471435546875,160,2022-01-01 10:00:00,2.38614,15.1089,15.296161,188.97456
39.29472351074219,-73.471435546875,160,2022-01-01 11:00:00,5.252836,15.464677,16.332438,198.76091
39.29472351074219,-73.471435546875,160,2022-01-01 12:00:00,9.021073,12.40282,15.336548,216.0299
39.29472351074219,-73.471435546875,160,2022-01-01 13:00:00,9.969908,7.2281733,12.314445,234.05792
39.29472351074219,-73.471435546875,160,2022-01-01 14:00:00,8.920403,3.7346408,9.670631,247.28275
39.29472351074219,-73.471435546875,160,2022-01-01 15:00:00,7.719609,2.5576608,8.13228,251.66893
39.29472351074219,-73.471435546875,160,2022-01-01 16:00:00,2.989473,2.8657045,4.1411605,226.21095
39.29472351074219,-73.471435546875,160,2022-01-01 17:00:00,2.0474522,3.8784893,4.3857427,207.82954
39.29472351074219,-73.471435546875,160,2022-01-01 18:00:00,0.7162347,5.415846,5.463001,187.53352
39.29472351074219,-73.471435546875,160,2022-01-01 19:00:00,-0.53628653,7.4412856,7.460585,175.87787
39.29472351074219,-73.471435546875,160,2022-01-01 20:00:00,-2.0795963,9.768118,9.987034,167.98138
39.29472351074219,-73.471435546875,160,2022-01-01 21:00:00,0.06915813,13.358575,13.358753,180.29662
39.29472351074219,-73.471435546875,160,2022-01-01 22:00:00,2.8692174,14.922965,15.196292,190.88336
39.29472351074219,-73.471435546875,160,2022-01-01 23:00:00,11.220837,18.26125,21.43316,211.56912
39.29472351074219,-73.471435546875,160,2022-01-02 00:00:00,15.030022,18.843462,24.103477,218.57675
39.29472351074219,-73.471435546875,160,2022-01-02 01:00:00,3.7440915,10.283969,10.9443245,200.00508
39.29472351074219,-73.471435546875,160,2022-01-02 02:00:00,6.2043886,11.532473,13.09551,208.27994
39.29472351074219,-73.471435546875,160,2022-01-02 03:00:00,9.214093,16.136616,18.581978,209.7266
39.29472351074219,-73.471435546875,160,2022-01-02 04:00:00,14.21175,19.337873,23.998484,216.31284
39.29472351074219,-73.471435546875,160,2022-01-02 05:00:00,18.644005,19.123617,26.707895,224.27243
39.29472351074219,-73.471435546875,160,2022-01-02 06:00:00,20.760975,16.518028,26.530422,231.49323
39.29472351074219,-73.471435546875,160,2022-01-02 07:00:00,21.129347,11.905198,24.252485,240.6012
39.29472351074219,-73.471435546875,160,2022-01-02 08:00:00,19.932207,10.899943,22.71787,241.32791
39.29472351074219,-73.471435546875,160,2022-01-02 09:00:00,18.183147,7.6073704,19.710377,247.2968
39.29472351074219,-73.471435546875,160,2022-01-02 10:00:00,17.718054,7.574954,19.26939,246.85196
39.29472351074219,-73.471435546875,160,2022-01-02 11:00:00,15.500966,4.152244,16.047464,255.00424
39.29472351074219,-73.471435546875,160,2022-01-02 12:00:00,14.291935,3.1959178,14.644907,257.39508
39.29472351074219,-73.471435546875,160,2022-01-02 13:00:00,13.587703,3.9381418,14.146894,253.83676
39.29472351074219,-73.471435546875,160,2022-01-02 14:00:00,9.980856,5.191756,11.250414,242.51785
39.29472351074219,-73.471435546875,160,2022-01-02 15:00:00,11.382267,7.102239,13.416326,238.03693
39.29472351074219,-73.471435546875,160,2022-01-02 16:00:00,10.294986,-1.1936544,10.363955,276.61365
39.29472351074219,-73.471435546875,160,2022-01-02 17:00:00,10.048754,-2.646867,10.391504,284.75665
39.29472351074219,-73.471435546875,160,2022-01-02 18:00:00,9.9652605,-3.314703,10.50208,288.39847
39.29472351074219,-73.471435546875,160,2022-01-02 19:00:00,7.371581,-2.3167048,7.7270517,287.44662
39.29472351074219,-73.471435546875,160,2022-01-02 20:00:00,6.779204,-1.7950904,7.012842,284.83118
39.29472351074219,-73.471435546875,160,2022-01-02 21:00:00,5.6714463,-1.4462724,5.8529487,284.30606
39.29472351074219,-73.471435546875,160,2022-01-02 22:00:00,6.2768044,-0.43475708,6.291843,273.96222
39.29472351074219,-73.471435546875,160,2022-01-02 23:00:00,9.411749,-2.9282646,9.856762,287.2824
39.29472351074219,-73.471435546875,160,2022-01-03 00:00:00,1.0245383,-6.626486,6.705221,351.21094
39.29472351074219,-73.471435546875,160,2022-01-03 01:00:00,6.0503774,-12.128203,13.553612,333.48685
39.29472351074219,-73.471435546875,160,2022-01-03 02:00:00,1.769295,-14.693227,14.799369,353.13376
39.29472351074219,-73.471435546875,160,2022-01-03 03:00:00,2.163394,-14.378323,14.540166,351.44333
39.29472351074219,-73.471435546875,160,2022-01-03 04:00:00,1.1382768,-14.180844,14.226455,355.4108
39.29472351074219,-73.471435546875,160,2022-01-03 05:00:00,0.07738901,-12.179799,12.180044,359.63596
39.29472351074219,-73.471435546875,160,2022-01-03 06:00:00,-4.7636685,-9.101008,10.272336,27.62854
39.29472351074219,-73.471435546875,160,2022-01-03 07:00:00,-5.2258625,-11.020681,12.196928,25.36969
39.29472351074219,-73.471435546875,160,2022-01-03 08:00:00,-5.0951643,-10.491427,11.663222,25.903534
39.29472351074219,-73.471435546875,160,2022-01-03 09:00:00,-7.026018,-7.8524995,10.53692,41.820557
39.29472351074219,-73.471435546875,160,2022-01-03 10:00:00,-8.213342,-9.83729,12.815274,39.85916
39.29472351074219,-73.471435546875,160,2022-01-03 11:00:00,-9.057345,-11.531955,14.66361,38.146545
39.29472351074219,-73.471435546875,160,2022-01-03 12:00:00,-11.03839,-11.161911,15.698226,44.681213
39.29472351074219,-73.471435546875,160,2022-01-03 13:00:00,-8.423005,-11.051804,13.89566,37.31244
39.29472351074219,-73.471435546875,160,2022-01-03 14:00:00,-9.53109,-10.454716,14.147182,42.354004
39.29472351074219,-73.471435546875,160,2022-01-03 15:00:00,-11.242854,-11.821395,16.314016,43.56311
39.29472351074219,-73.471435546875,160,2022-01-03 16:00:00,-10.642675,-15.7097,18.975279,34.116028
39.29472351074219,-73.471435546875,160,2022-01-03 17:00:00,-10.938727,-16.401228,19.714361,33.70114
39.29472351074219,-73.471435546875,160,2022-01-03 18:00:00,-12.654463,-14.023643,18.889097,42.062042
39.29472351074219,-73.471435546875,160,2022-01-03 19:00:00,-11.196392,-16.381786,19.842432,34.351288
39.29472351074219,-73.471435546875,160,2022-01-03 20:00:00,-10.60085,-18.773397,21.559649,29.452301
39.29472351074219,-73.471435546875,160,2022-01-03 21:00:00,-5.0717,-19.353998,20.007483,14.684143
39.29472351074219,-73.471435546875,160,2022-01-03 22:00:00,-3.3568218,-17.76839,18.082697,10.698273
39.29472351074219,-73.471435546875,160,2022-01-03 23:00:00,-2.9748113,-16.659431,16.922949,10.12439
39.29472351074219,-73.471435546875,160,2022-01-04 00:00:00,-2.4149106,-16.039843,16.220615,8.561981
39.29472351074219,-73.471435546875,160,2022-01-04 01:00:00,0.046831638,-17.17853,17.178595,359.8438
39.29472351074219,-73.471435546875,160,2022-01-04 02:00:00,1.9697062,-16.845158,16.959925,353.3307
39.29472351074219,-73.471435546875,160,2022-01-04 03:00:00,1.3306308,-15.779909,15.835913,355.17996
39.29472351074219,-73.471435546875,160,2022-01-04 04:00:00,1.2081127,-14.95849,15.007197,355.38257
39.29472351074219,-73.471435546875,160,2022-01-04 05:00:00,0.5215107,-15.254684,15.263597,358.042
39.29472351074219,-73.471435546875,160,2022-01-04 06:00:00,0.7457213,-14.26538,14.284859,357.0076
39.29472351074219,-73.471435546875,160,2022-01-04 07:00:00,0.99316436,-12.750057,12.78868,355.54596
39.29472351074219,-73.471435546875,160,2022-01-04 08:00:00,1.5221153,-11.381258,11.48259,352.38254
39.29472351074219,-73.471435546875,160,2022-01-04 09:00:00,1.1231585,-10.347926,10.408701,353.8054
39.29472351074219,-73.471435546875,160,2022-01-04 10:00:00,1.1898428,-9.495091,9.569351,352.85742
39.29472351074219,-73.471435546875,160,2022-01-04 11:00:00,0.691073,-8.373402,8.401871,355.28195
39.29472351074219,-73.471435546875,160,2022-01-04 12:00:00,0.32213634,-7.5327625,7.5396476,357.55127
39.29472351074219,-73.471435546875,160,2022-01-04 13:00:00,-0.2449293,-6.2883873,6.2931557,2.2304993
39.29472351074219,-73.471435546875,160,2022-01-04 14:00:00,-0.4153288,-5.6388435,5.6541185,4.2125244
39.29472351074219,-73.471435546875,160,2022-01-04 15:00:00,-0.66965574,-4.2613378,4.313634,8.930817
39.29472351074219,-73.471435546875,160,2022-01-04 16:00:00,-0.6598816,-3.1928859,3.2603626,11.677063
39.29472351074219,-73.471435546875,160,2022-01-04 17:00:00,-0.5452173,-1.7882708,1.8695385,16.955688
39.29472351074219,-73.471435546875,160,2022-01-04 18:00:00,-0.091271386,-0.7759885,0.78133774,6.7082825
39.29472351074219,-73.471435546875,160,2022-01-04 19:00:00,0.94456506,-0.1410308,0.9550355,278.49197
39.29472351074219,-73.471435546875,160,2022-01-04 20:00:00,1.4026858,0.5079031,1.4918087,250.09503
39.29472351074219,-73.471435546875,160,2022-01-04 21:00:00,1.8681512,1.5950809,2.4564755,229.50835
39.29472351074219,-73.471435546875,160,2022-01-04 22:00:00,2.2900434,2.3720355,3.2970974,223.99243
39.29472351074219,-73.471435546875,160,2022-01-04 23:00:00,2.921181,3.0223372,4.2033105,224.02495
39.29472351074219,-73.471435546875,160,2022-01-05 00:00:00,3.1768038,3.473577,4.7072096,222.44487
39.29472351074219,-73.471435546875,160,2022-01-05 01:00:00,2.3732212,4.8112383,5.3647175,206.25557
39.29472351074219,-73.471435546875,160,2022-01-05 02:00:00,2.0538719,5.661578,6.022612,199.93945
39.29472351074219,-73.471435546875,160,2022-01-05 03:00:00,1.8726445,6.4315777,6.698656,196.23366
39.29472351074219,-73.471435546875,160,2022-01-05 04:00:00,1.6378174,7.6843104,7.856912,192.03186
39.29472351074219,-73.471435546875,160,2022-01-05 05:00:00,2.0004513,8.200356,8.440832,193.70935
39.29472351074219,-73.471435546875,160,2022-01-05 06:00:00,2.7222588,8.78089,9.193189,197.22452
39.29472351074219,-73.471435546875,160,2022-01-05 07:00:00,0.6008973,9.883977,9.9022255,183.47902
39.29472351074219,-73.471435546875,160,2022-01-05 08:00:00,0.5913336,9.532257,9.550581,183.54979
39.29472351074219,-73.471435546875,160,2022-01-05 09:00:00,0.22799031,10.118786,10.121354,181.29074
39.29472351074219,-73.471435546875,160,2022-01-05 10:00:00,-0.054246955,10.901312,10.901447,179.7149
39.29472351074219,-73.471435546875,160,2022-01-05 11:00:00,-1.566362,10.607182,10.72221,171.59985
39.29472351074219,-73.471435546875,160,2022-01-05 12:00:00,-2.2668521,11.923959,12.13752,169.23602
39.29472351074219,-73.471435546875,160,2022-01-05 13:00:00,-1.6230376,13.417227,13.515037,173.10266
39.29472351074219,-73.471435546875,160,2022-01-05 14:00:00,-0.055617012,13.77168,13.771792,179.76862
39.29472351074219,-73.471435546875,160,2022-01-05 15:00:00,0.12660873,16.319698,16.320189,180.44449
39.29472351074219,-73.471435546875,160,2022-01-05 16:00:00,1.129683,12.982416,13.031474,184.97314
39.29472351074219,-73.471435546875,160,2022-01-05 17:00:00,3.3993797,19.848175,20.137175,189.71869
39.29472351074219,-73.471435546875,160,2022-01-05 18:00:00,3.6202135,19.514246,19.84721,190.50983
39.29472351074219,-73.471435546875,160,2022-01-05 19:00:00,8.979525,15.139944,17.60255,210.67224
39.29472351074219,-73.471435546875,160,2022-01-05 20:00:00,12.464559,10.617598,16.373716,229.57487
39.29472351074219,-73.471435546875,160,2022-01-05 21:00:00,11.455113,9.210578,14.698788,231.1987
39.29472351074219,-73.471435546875,160,2022-01-05 22:00:00,11.158842,9.224932,14.4782295,230.41971
39.29472351074219,-73.471435546875,160,2022-01-05 23:00:00,10.810752,9.931241,14.679983,227.42802
39.29472351074219,-73.471435546875,160,2022-01-06 00:00:00,12.445219,7.4955235,14.528123,238.94022
39.29472351074219,-73.471435546875,160,2022-01-06 01:00:00,10.242771,8.338102,13.20751,230.85277
39.29472351074219,-73.471435546875,160,2022-01-06 02:00:00,10.830004,6.399903,12.579656,239.41937
39.29472351074219,-73.471435546875,160,2022-01-06 03:00:00,12.512176,4.4288125,13.272863,250.50806
39.29472351074219,-73.471435546875,160,2022-01-06 04:00:00,14.915159,0.74897885,14.933953,267.12524
39.29472351074219,-73.471435546875,160,2022-01-06 05:00:00,14.550204,-0.75063705,14.569554,272.95325
39.29472351074219,-73.471435546875,160,2022-01-06 06:00:00,14.574053,-2.0908647,14.723272,278.1642
39.29472351074219,-73.471435546875,160,2022-01-06 07:00:00,14.799885,-4.174446,15.37734,285.7516
39.29472351074219,-73.471435546875,160,2022-01-06 08:00:00,15.181894,-6.050042,16.342978,291.72748
39.29472351074219,-73.471435546875,160,2022-01-06 09:00:00,13.919019,-6.3277144,15.289835,294.447
39.29472351074219,-73.471435546875,160,2022-01-06 10:00:00,12.070218,-6.4739566,13.696798,298.20724
39.29472351074219,-73.471435546875,160,2022-01-06 11:00:00,11.529692,-6.0424232,13.017092,297.6579
39.29472351074219,-73.471435546875,160,2022-01-06 12:00:00,11.639491,-6.551693,13.356737,299.3745
39.29472351074219,-73.471435546875,160,2022-01-06 13:00:00,11.480267,-5.9518795,12.931411,297.40424
39.29472351074219,-73.471435546875,160,2022-01-06 14:00:00,11.384716,-5.5057445,12.646145,295.8088
39.29472351074219,-73.471435546875,160,2022-01-06 15:00:00,10.202902,-4.4717135,11.139812,293.6668
39.29472351074219,-73.471435546875,160,2022-01-06 16:00:00,9.863993,-2.654358,10.21489,285.06128
39.29472351074219,-73.471435546875,160,2022-01-06 17:00:00,8.933295,-2.1437786,9.186923,283.49445
39.29472351074219,-73.471435546875,160,2022-01-06 18:00:00,8.506916,-1.184053,8.588923,277.92392
39.29472351074219,-73.471435546875,160,2022-01-06 19:00:00,8.356092,-0.86233443,8.400471,275.89197
39.29472351074219,-73.471435546875,160,2022-01-06 20:00:00,8.572469,-0.24233751,8.575893,271.61926
39.29472351074219,-73.471435546875,160,2022-01-06 21:00:00,8.047785,-0.10019701,8.0484085,270.71332
39.29472351074219,-73.471435546875,160,2022-01-06 22:00:00,7.028934,-0.23422723,7.0328355,271.90857
39.29472351074219,-73.471435546875,160,2022-01-06 23:00:00,6.2048554,-0.6088076,6.2346516,275.60382
39.29472351074219,-73.471435546875,160,2022-01-07 00:00:00,6.0432096,-1.6406012,6.261945,285.1885
39.29472351074219,-73.471435546875,160,2022-01-07 01:00:00,1.907679,-3.3164566,3.8259802,330.0918
39.29472351074219,-73.471435546875,160,2022-01-07 02:00:00,-1.2460269,-3.4142199,3.6344848,20.049652
39.29472351074219,-73.471435546875,160,2022-01-07 03:00:00,-3.714909,-2.8663232,4.692159,52.3472
39.29472351074219,-73.471435546875,160,2022-01-07 04:00:00,-4.572704,-1.7030051,4.8795333,69.57324
39.29472351074219,-73.471435546875,160,2022-01-07 05:00:00,-5.8641458,-4.1460733,7.181792,54.73889
39.29472351074219,-73.471435546875,160,2022-01-07 06:00:00,-6.9039783,-4.1646667,8.062839,58.900482
39.29472351074219,-73.471435546875,160,2022-01-07 07:00:00,-9.881082,-4.865577,11.014065,63.783752
39.29472351074219,-73.471435546875,160,2022-01-07 08:00:00,-12.109833,-4.502552,12.919792,69.60437
39.29472351074219,-73.471435546875,160,2022-01-07 09:00:00,-11.957456,-2.3816266,12.192329,78.735535
39.29472351074219,-73.471435546875,160,2022-01-07 10:00:00,-7.845782,-1.0305015,7.913168,82.517334
39.29472351074219,-73.471435546875,160,2022-01-07 11:00:00,1.9945215,-11.070786,11.24902,349.7871
39.29472351074219,-73.471435546875,160,2022-01-07 12:00:00,4.84208,-19.087296,19.691893,345.76544
39.29472351074219,-73.471435546875,160,2022-01-07 13:00:00,9.547256,-19.386524,21.609892,333.7812
39.29472351074219,-73.471435546875,160,2022-01-07 14:00:00,10.648481,-12.02726,16.063784,318.47952
39.29472351074219,-73.471435546875,160,2022-01-07 15:00:00,11.793825,-10.256165,15.629562,311.01093
39.29472351074219,-73.471435546875,160,2022-01-07 16:00:00,12.416823,-10.033648,15.964072,308.9406
39.29472351074219,-73.471435546875,160,2022-01-07 17:00:00,11.729522,-9.373392,15.014731,308.62933
39.29472351074219,-73.471435546875,160,2022-01-07 18:00:00,12.438453,-7.4473124,14.497502,300.91034
39.29472351074219,-73.471435546875,160,2022-01-07 19:00:00,12.860429,-5.8817897,14.141644,294.57724
39.29472351074219,-73.471435546875,160,2022-01-07 20:00:00,13.234958,-5.7685018,14.437442,293.55014
39.29472351074219,-73.471435546875,160,2022-01-07 21:00:00,13.889736,-6.115282,15.176345,293.7626
39.29472351074219,-73.471435546875,160,2022-01-07 22:00:00,14.136699,-7.149834,15.841919,296.82864
39.29472351074219,-73.471435546875,160,2022-01-07 23:00:00,13.958412,-7.6697683,15.926789,298.7876
39.29472351074219,-73.471435546875,160,2022-01-08 00:00:00,13.964843,-7.6766777,15.935753,298.79822
39.29472351074219,-73.471435546875,160,2022-01-08 01:00:00,14.20907,-8.771144,16.698223,301.6867
39.29472351074219,-73.471435546875,160,2022-01-08 02:00:00,14.17093,-9.3635,16.985004,303.4549
39.29472351074219,-73.471435546875,160,2022-01-08 03:00:00,13.070098,-10.466746,16.744558,308.68832
39.29472351074219,-73.471435546875,160,2022-01-08 04:00:00,12.026478,-10.658506,16.069845,311.54907
39.29472351074219,-73.471435546875,160,2022-01-08 05:00:00,10.858367,-11.632496,15.912859,316.9713
39.29472351074219,-73.471435546875,160,2022-01-08 06:00:00,9.925117,-11.737377,15.371205,319.78217
39.29472351074219,-73.471435546875,160,2022-01-08 07:00:00,10.252195,-10.842509,14.922048,316.60294
39.29472351074219,-73.471435546875,160,2022-01-08 08:00:00,10.256444,-10.388746,14.598654,315.36716
39.29472351074219,-73.471435546875,160,2022-01-08 09:00:00,8.208669,-10.83729,13.595186,322.858
39.29472351074219,-73.471435546875,160,2022-01-08 10:00:00,7.486734,-10.715956,13.072219,325.0598
39.29472351074219,-73.471435546875,160,2022-01-08 11:00:00,6.1763363,-10.425793,12.117932,329.35712
39.29472351074219,-73.471435546875,160,2022-01-08 12:00:00,4.106748,-10.300924,11.089383,338.26395
39.29472351074219,-73.471435546875,160,2022-01-08 13:00:00,2.723757,-8.642662,9.061703,342.50763
39.29472351074219,-73.471435546875,160,2022-01-08 14:00:00,2.4411776,-7.721779,8.098471,342.4561
39.29472351074219,-73.471435546875,160,2022-01-08 15:00:00,1.9630601,-6.909184,7.1826477,344.13892
39.29472351074219,-73.471435546875,160,2022-01-08 16:00:00,1.6001766,-5.718135,5.9378138,344.36612
39.29472351074219,-73.471435546875,160,2022-01-08 17:00:00,1.559164,-4.9206066,5.1617208,342.41846
39.29472351074219,-73.471435546875,160,2022-01-08 18:00:00,2.2887416,-4.2049627,4.787489,331.44077
39.29472351074219,-73.471435546875,160,2022-01-08 19:00:00,2.3227048,-3.6144364,4.2964063,327.27444
39.29472351074219,-73.471435546875,160,2022-01-08 20:00:00,2.2164123,-3.0217094,3.7474272,323.7401
39.29472351074219,-73.471435546875,160,2022-01-08 21:00:00,2.0222065,-1.7988263,2.7064912,311.65427
39.29472351074219,-73.471435546875,160,2022-01-08 22:00:00,1.3013762,-0.6951773,1.4754157,298.11053
39.29472351074219,-73.471435546875,160,2022-01-08 23:00:00,0.8755785,0.54520476,1.0314485,238.09033
39.29472351074219,-73.471435546875,160,2022-01-09 00:00:00,1.2101207,1.5365335,1.9558444,218.22275
39.29472351074219,-73.471435546875,160,2022-01-09 01:00:00,1.8841792,2.4241688,3.0702972,217.85605
39.29472351074219,-73.471435546875,160,2022-01-09 02:00:00,2.301935,3.9395223,4.562756,210.29852
39.29472351074219,-73.471435546875,160,2022-01-09 03:00:00,2.7538037,4.9101744,5.6296754,209.2853
39.29472351074219,-73.471435546875,160,2022-01-09 04:00:00,1.5547069,5.7691956,5.975009,195.08202
39.29472351074219,-73.471435546875,160,2022-01-09 05:00:00,2.124891,6.9942207,7.309876,196.89912
39.29472351074219,-73.471435546875,160,2022-01-09 06:00:00,3.1389463,6.7474637,7.441858,204.94803
39.29472351074219,-73.471435546875,160,2022-01-09 07:00:00,4.2180934,8.237253,9.254439,207.11586
39.29472351074219,-73.471435546875,160,2022-01-09 08:00:00,4.7791877,8.659022,9.890365,208.89569
39.29472351074219,-73.471435546875,160,2022-01-09 09:00:00,5.2934813,8.784209,10.25589,211.07372
39.29472351074219,-73.471435546875,160,2022-01-09 10:00:00,6.116011,8.845863,10.754296,214.6599
39.29472351074219,-73.471435546875,160,2022-01-09 11:00:00,6.281869,8.862766,10.863264,215.32875
39.29472351074219,-73.471435546875,160,2022-01-09 12:00:00,6.561562,9.062169,11.188252,215.90683
39.29472351074219,-73.471435546875,160,2022-01-09 13:00:00,7.072799,10.251994,12.455034,214.6016
39.29472351074219,-73.471435546875,160,2022-01-09 14:00:00,8.604045,10.757211,13.774875,218.6542
39.29472351074219,-73.471435546875,160,2022-01-09 15:00:00,9.9520855,10.828679,14.707287,222.58453
39.29472351074219,-73.471435546875,160,2022-01-09 16:00:00,10.362617,11.385632,15.395337,222.30685
39.29472351074219,-73.471435546875,160,2022-01-09 17:00:00,9.498945,12.089384,15.374758,218.15764
39.29472351074219,-73.471435546875,160,2022-01-09 18:00:00,10.645813,13.547655,17.229982,218.16043
39.29472351074219,-73.471435546875,160,2022-01-09 19:00:00,12.357166,13.416136,18.239853,222.64716
39.29472351074219,-73.471435546875,160,2022-01-09 20:00:00,13.259166,13.442527,18.881393,224.60655
39.29472351074219,-73.471435546875,160,2022-01-09 21:00:00,13.743975,12.786933,18.772387,227.06592
39.29472351074219,-73.471435546875,160,2022-01-09 22:00:00,15.083535,13.345204,20.1397,228.4991
39.29472351074219,-73.471435546875,160,2022-01-09 23:00:00,15.621283,10.900488,19.048492,235.09277
39.29472351074219,-73.471435546875,160,2022-01-10 00:00:00,14.12408,7.2243934,15.864472,242.91049
39.29472351074219,-73.471435546875,160,2022-01-10 01:00:00,13.909047,7.674028,15.8856,241.11319
39.29472351074219,-73.471435546875,160,2022-01-10 02:00:00,13.398624,5.777713,14.591268,246.67348
39.29472351074219,-73.471435546875,160,2022-01-10 03:00:00,15.1794615,0.09841417,15.17978,269.62854
39.29472351074219,-73.471435546875,160,2022-01-10 04:00:00,16.84275,-6.913635,18.2065,292.31723
39.29472351074219,-73.471435546875,160,2022-01-10 05:00:00,15.366663,-11.357942,19.108562,306.46918
39.29472351074219,-73.471435546875,160,2022-01-10 06:00:00,11.734956,-12.638137,17.246208,317.12222
39.29472351074219,-73.471435546875,160,2022-01-10 07:00:00,10.196807,-12.922986,16.461424,321.725
39.29472351074219,-73.471435546875,160,2022-01-10 08:00:00,7.640643,-11.9733095,14.2035055,327.45645
39.29472351074219,-73.471435546875,160,2022-01-10 09:00:00,7.2888026,-13.592523,15.423467,331.7982
39.29472351074219,-73.471435546875,160,2022-01-10 10:00:00,7.10382,-12.289497,14.194929,329.97037
39.29472351074219,-73.471435546875,160,2022-01-10 11:00:00,4.8657336,-13.344829,14.204219,339.96735
39.29472351074219,-73.471435546875,160,2022-01-10 12:00:00,5.91029,-12.910445,14.198983,335.4021
39.29472351074219,-73.471435546875,160,2022-01-10 13:00:00,5.1655874,-12.075612,13.134067,336.8402
39.29472351074219,-73.471435546875,160,2022-01-10 14:00:00,4.5171804,-11.032774,11.921703,337.7342
39.29472351074219,-73.471435546875,160,2022-01-10 15:00:00,4.53936,-10.177909,11.144309,335.96307
39.29472351074219,-73.471435546875,160,2022-01-10 16:00:00,4.9249525,-8.865707,10.141791,330.94757
39.29472351074219,-73.471435546875,160,2022-01-10 17:00:00,5.16971,-7.030836,8.726887,323.67328
39.29472351074219,-73.471435546875,160,2022-01-10 18:00:00,6.3651586,-5.437197,8.371282,310.50436
39.29472351074219,-73.471435546875,160,2022-01-10 19:00:00,6.506574,-3.5986428,7.4354377,298.946
39.29472351074219,-73.471435546875,160,2022-01-10 20:00:00,8.597434,-3.8647356,9.426137,294.20496
39.29472351074219,-73.471435546875,160,2022-01-10 21:00:00,10.064447,-5.086272,11.276669,296.81067
39.29472351074219,-73.471435546875,160,2022-01-10 22:00:00,10.654799,-5.2938447,11.89746,296.4205
39.29472351074219,-73.471435546875,160,2022-01-10 23:00:00,10.33486,-6.5843477,12.2541,302.50125
39.29472351074219,-73.471435546875,160,2022-01-11 00:00:00,11.15974,-7.456922,13.421829,303.7508
39.29472351074219,-73.471435546875,160,2022-01-11 01:00:00,12.053336,-7.3790183,14.132687,301.47485